Location: Barrio Pajares
(40.5500°N, 4.1667°W)
Time: 05:53:49
(UTC+00:00)

Cosmos 540 Rocket - Pass Details

Date: 18 April 2024
Orbit: 737 x 751 km, 74.1° (Epoch: 22 May)

Event Time Altitude Azimuth Distance (km) Brightness Sun altitude
Exits shadow 21:18:55 39° 61° (ENE) 1,097 4.1 -24.0°
Drops below altitude 10° 21:22:31 10° 30° (NNE) 2,255 6.0 -24.5°
Sets 21:24:56 0° 25° (NNE) 3,185 6.9 -24.9°
